Bar Harbor, ME

10:06 AM EDT on September 19, 2017 (GMT -0400)
Hancock County-Bar Harbor

Weather History for KBHB - February, 2013

Change the Weather History Date:

Monday, February 18, 2013

  Actual Average Record
Temperature  
Mean Temperature 22 °F -  
Max Temperature 28 °F 30 °F 57 °F (1981)
Min Temperature 15 °F 12 °F -7 °F (2014)
Degree Days  
Heating Degree Days 44    
Moisture  
Dew Point 6 °F    
Average Humidity 50    
Maximum Humidity 68    
Minimum Humidity 40    
Precipitation  
Precipitation 0.00 in - - ()
Sea Level Pressure  
Sea Level Pressure 29.56 in    
Wind  
Wind Speed 14 mph (WNW)    
Max Wind Speed 22 mph    
Max Gust Speed 34 mph    
Visibility 10 miles    
Events      
Averages and records for this station are not official NWS values.
T = Trace of Precipitation, MM = Missing Value Source: NWS Daily Summary

Daily Weather History Graph

Daily Weather History Graph

Search for Another Location

Airport or City:

Trip Planner

Search our weather history database for the weather conditions in past years. The results will help you decide how hot, cold, wet, or windy it might be!

Date:

Astronomy

Feb. 18, 2013 Rise Set
Actual Time 6:28 AM EST 5:06 PM EST
Civil Twilight 5:58 AM EST 5:36 PM EST
Nautical Twilight 5:24 AM EST 6:10 PM EST
Astronomical Twilight 4:51 AM EST 6:44 PM EST
Moon 10:43 AM EST (2/18) 1:11 AM EST (2/18)
Length of Visible Light 11h 37m
Length of Day
10h 38m
First Quarter, 58% of the Moon is Illuminated
Feb 18
First Quarter
Feb 25
Full
Mar 4
Last Quarter
Mar 11
New
Mar 19
First Quarter

Hourly Weather History & Observations

Time (EST) Temp. Windchill Dew Point Humidity Pressure Visibility Wind Dir Wind Speed Gust Speed Precip Events Conditions
12:15 AM 19.4 °F 5.5 °F 10.4 °F 68% 29.25 in 7.0 mi West 15.0 mph 27.6 mph N/A   Overcast
12:35 AM 19.4 °F 5.0 °F 10.4 °F 68% 29.26 in 5.0 mi WNW 16.1 mph 27.6 mph N/A   Overcast
12:55 AM 19.4 °F 7.2 °F 10.4 °F 68% 29.27 in 10.0 mi West 11.5 mph 26.5 mph N/A   Overcast
1:15 AM 19.4 °F 5.5 °F 10.4 °F 68% 29.28 in 10.0 mi West 15.0 mph 25.3 mph N/A   Overcast
1:35 AM 17.6 °F 8.2 °F 8.6 °F 68% 29.29 in 10.0 mi WNW 6.9 mph 24.2 mph N/A   Overcast
1:55 AM 17.6 °F 5.0 °F 8.6 °F 68% 29.30 in 10.0 mi West 11.5 mph 25.3 mph N/A   Overcast
2:15 AM 17.6 °F 3.7 °F 8.6 °F 68% 29.30 in 10.0 mi West 13.8 mph 27.6 mph N/A   Overcast
2:35 AM 17.6 °F 5.7 °F 6.8 °F 63% 29.31 in 10.0 mi WNW 10.4 mph 27.6 mph N/A   Overcast
2:55 AM 17.6 °F 4.3 °F 6.8 °F 63% 29.31 in 9.0 mi West 12.7 mph 29.9 mph N/A   Mostly Cloudy
3:15 AM 17.6 °F 2.7 °F 5.0 °F 58% 29.32 in 9.0 mi WNW 16.1 mph 27.6 mph N/A   Partly Cloudy
3:35 AM 15.8 °F -1.1 °F 3.2 °F 58% 29.33 in 9.0 mi WNW 19.6 mph 29.9 mph N/A   Clear
3:55 AM 15.8 °F 0.9 °F 3.2 °F 58% 29.34 in 10.0 mi WNW 15.0 mph 34.5 mph N/A   Clear
4:15 AM 15.8 °F -0.6 °F 3.2 °F 58% 29.34 in 10.0 mi WNW 18.4 mph 31.1 mph N/A   Clear
4:35 AM 15.8 °F -0.2 °F 3.2 °F 58% 29.35 in 10.0 mi WNW 17.3 mph 34.5 mph N/A   Clear
4:55 AM 15.8 °F 4.2 °F 3.2 °F 58% 29.37 in 10.0 mi WNW 9.2 mph 28.8 mph N/A   Clear
5:15 AM 15.8 °F 1.4 °F 3.2 °F 58% 29.37 in 10.0 mi WNW 13.8 mph 28.8 mph N/A   Clear
5:35 AM 15.8 °F 0.3 °F 3.2 °F 58% 29.38 in 10.0 mi West 16.1 mph 26.5 mph N/A   Clear
5:55 AM 15.8 °F 0.3 °F 3.2 °F 58% 29.39 in 9.0 mi West 16.1 mph 25.3 mph N/A   Clear
6:15 AM 15.8 °F 0.3 °F 3.2 °F 58% 29.41 in 10.0 mi West 16.1 mph 25.3 mph N/A   Clear
6:35 AM 15.8 °F 0.3 °F 3.2 °F 58% 29.42 in 10.0 mi WNW 16.1 mph 33.4 mph N/A   Clear
6:55 AM 15.8 °F -0.2 °F 3.2 °F 58% 29.43 in 10.0 mi WNW 17.3 mph 29.9 mph N/A   Clear
7:15 AM 15.8 °F 2.7 °F 3.2 °F 58% 29.45 in 10.0 mi WNW 11.5 mph 27.6 mph N/A   Clear
7:35 AM 15.8 °F 0.9 °F 3.2 °F 58% 29.46 in 9.0 mi WNW 15.0 mph 23.0 mph N/A   Clear
8:15 AM 17.6 °F 4.3 °F 3.2 °F 53% 29.48 in 10.0 mi NW 12.7 mph 29.9 mph N/A   Clear
8:35 AM 17.6 °F 3.7 °F 3.2 °F 53% 29.49 in 10.0 mi WNW 13.8 mph 23.0 mph N/A   Clear
8:55 AM 19.4 °F 6.0 °F 3.2 °F 49% 29.50 in 10.0 mi WNW 13.8 mph 24.2 mph N/A   Clear
9:15 AM 21.2 °F 10.1 °F 3.2 °F 46% 29.51 in 10.0 mi West 10.4 mph 21.9 mph N/A   Clear
9:35 AM 23.0 °F 11.7 °F 5.0 °F 46% 29.52 in 10.0 mi West 11.5 mph 18.4 mph N/A   Clear
9:55 AM 23.0 °F 12.4 °F 5.0 °F 46% 29.53 in 10.0 mi WNW 10.4 mph 23.0 mph N/A   Clear
10:15 AM 24.8 °F 12.9 °F 5.0 °F 43% 29.54 in 10.0 mi WNW 13.8 mph 27.6 mph N/A   Clear
10:35 AM 24.8 °F 13.4 °F 5.0 °F 43% 29.54 in 10.0 mi WNW 12.7 mph 25.3 mph N/A   Clear
10:55 AM 26.6 °F 14.3 °F 5.0 °F 40% 29.54 in 10.0 mi WNW 16.1 mph 26.5 mph N/A   Clear
11:15 AM 26.6 °F 15.2 °F 5.0 °F 40% 29.54 in 10.0 mi West 13.8 mph 27.6 mph N/A   Clear
11:35 AM 24.8 °F 10.0 °F 5.0 °F 43% 29.53 in 10.0 mi West 21.9 mph 31.1 mph N/A   Clear
11:55 AM 26.6 °F 17.5 °F 6.8 °F 43% 29.55 in 10.0 mi West 9.2 mph 27.6 mph N/A   Clear
12:15 PM 26.6 °F 13.1 °F 6.8 °F 43% 29.55 in 10.0 mi West 19.6 mph 29.9 mph N/A   Clear
12:35 PM 26.6 °F 14.3 °F 5.0 °F 40% 29.56 in 10.0 mi West 16.1 mph 33.4 mph N/A   Clear
12:55 PM 28.4 °F 16.6 °F 6.8 °F 40% 29.57 in 10.0 mi West 16.1 mph 28.8 mph N/A   Clear
1:15 PM 28.4 °F 18.0 °F 6.8 °F 40% 29.58 in 10.0 mi WNW 12.7 mph 32.2 mph N/A   Clear
1:35 PM 28.4 °F 15.8 °F 6.8 °F 40% 29.58 in 10.0 mi West 18.4 mph 29.9 mph N/A   Clear
1:55 PM 28.4 °F 15.1 °F 6.8 °F 40% 29.59 in 10.0 mi WNW 20.7 mph 28.8 mph N/A   Clear
2:15 PM 28.4 °F 18.5 °F 6.8 °F 40% 29.60 in 10.0 mi WNW 11.5 mph 29.9 mph N/A   Clear
2:35 PM 28.4 °F 16.2 °F 6.8 °F 40% 29.60 in 10.0 mi WNW 17.3 mph 31.1 mph N/A   Clear
2:55 PM 28.4 °F 16.2 °F 6.8 °F 40% 29.61 in 10.0 mi West 17.3 mph 28.8 mph N/A   Clear
3:15 PM 28.4 °F 17.5 °F 6.8 °F 40% 29.61 in 10.0 mi West 13.8 mph 27.6 mph N/A   Clear
3:35 PM 28.4 °F 16.2 °F 6.8 °F 40% 29.63 in 10.0 mi West 17.3 mph 29.9 mph N/A   Clear
3:55 PM 28.4 °F 15.4 °F 6.8 °F 40% 29.64 in 10.0 mi WNW 19.6 mph 26.5 mph N/A   Clear
4:15 PM 28.4 °F 18.0 °F 6.8 °F 40% 29.66 in 10.0 mi WNW 12.7 mph 28.8 mph N/A   Clear
4:35 PM 28.4 °F 19.7 °F 6.8 °F 40% 29.68 in 10.0 mi WNW 9.2 mph 26.5 mph N/A   Clear
4:55 PM 26.6 °F 13.8 °F 6.8 °F 43% 29.70 in 10.0 mi WNW 17.3 mph 25.3 mph N/A   Clear
5:15 PM 26.6 °F 20.0 °F 6.8 °F 43% 29.71 in 10.0 mi West 5.8 mph 20.7 mph N/A   Clear
5:35 PM 26.6 °F 20.0 °F 6.8 °F 43% 29.72 in 10.0 mi WNW 5.8 mph 17.3 mph N/A   Clear
5:55 PM 24.8 °F 14.6 °F 6.8 °F 46% 29.74 in 10.0 mi WNW 10.4 mph 24.2 mph N/A   Clear
6:35 PM 24.8 °F 13.4 °F 6.8 °F 46% 29.77 in 10.0 mi West 12.7 mph 21.9 mph N/A   Clear
6:55 PM 24.8 °F 15.3 °F 6.8 °F 46% 29.78 in 10.0 mi West 9.2 mph 23.0 mph N/A   Clear
7:15 PM 23.0 °F 11.7 °F 6.8 °F 50% 29.79 in 10.0 mi WNW 11.5 mph 27.6 mph N/A   Clear
7:35 PM 23.0 °F 11.1 °F 5.0 °F 46% 29.80 in 10.0 mi WNW 12.7 mph 24.2 mph N/A   Clear
7:55 PM 23.0 °F 12.4 °F 3.2 °F 43% 29.81 in 10.0 mi WNW 10.4 mph 18.4 mph N/A   Clear
8:15 PM 21.2 °F 10.9 °F 3.2 °F 46% 29.82 in 10.0 mi WNW 9.2 mph 21.9 mph N/A   Clear
8:35 PM 21.2 °F 8.3 °F 3.2 °F 46% 29.82 in 10.0 mi WNW 13.8 mph 21.9 mph N/A   Clear
8:55 PM 21.2 °F 8.3 °F 5.0 °F 50% 29.82 in 10.0 mi WNW 13.8 mph 21.9 mph N/A   Clear
9:15 PM 21.2 °F 10.1 °F 5.0 °F 50% 29.83 in 10.0 mi WNW 10.4 mph 18.4 mph N/A   Clear
9:35 PM 21.2 °F 8.9 °F 5.0 °F 50% 29.84 in 10.0 mi West 12.7 mph 18.4 mph N/A   Clear
9:55 PM 21.2 °F 9.5 °F 5.0 °F 50% 29.85 in 10.0 mi West 11.5 mph 20.7 mph N/A   Clear
10:35 PM 21.2 °F 10.1 °F 5.0 °F 50% 29.85 in 10.0 mi West 10.4 mph 18.4 mph N/A   Clear
10:55 PM 21.2 °F 9.5 °F 5.0 °F 50% 29.86 in 10.0 mi West 11.5 mph 17.3 mph N/A   Clear
11:15 PM 21.2 °F 10.1 °F 5.0 °F 50% 29.87 in 10.0 mi West 10.4 mph 17.3 mph N/A   Clear
11:35 PM 21.2 °F 8.9 °F 3.2 °F 46% 29.88 in 10.0 mi West 12.7 mph 18.4 mph N/A   Clear
11:55 PM 19.4 °F 8.6 °F 5.0 °F 54% 29.89 in 10.0 mi West 9.2 mph 17.3 mph N/A   Clear